Time,TemperatureF,DewpointF,PressureIn,WindDirection,WindDirectionDegrees,WindSpeedMPH,WindSpeedGustMPH,Humidity,HourlyPrecipIn,Conditions,Clouds,dailyrainin,SoftwareType,DateUTC
2013-02-09 00:02:00,24.0,20.0,30.40,NNW,340,0.0,0.0,85,0.00,,,0.01,,2013-02-09 05:02:00,
2013-02-09 00:12:00,24.0,20.0,30.40,NNW,340,0.0,0.0,85,0.00,,,0.01,,2013-02-09 05:12:00,
2013-02-09 00:22:00,24.0,20.0,30.40,NNW,340,0.0,0.0,86,0.00,,,0.01,,2013-02-09 05:22:00,
2013-02-09 00:32:00,23.0,19.0,30.40,NNW,340,0.0,2.0,86,0.00,,,0.01,,2013-02-09 05:32:00,
2013-02-09 00:42:00,23.0,19.0,30.40,NNW,340,0.0,2.0,86,0.00,,,0.01,,2013-02-09 05:42:00,
2013-02-09 00:52:00,23.0,20.0,30.40,NNW,340,0.0,2.0,87,0.00,,,0.01,,2013-02-09 05:52:00,
2013-02-09 01:01:00,23.0,20.0,30.40,NNW,340,0.0,2.0,87,0.00,,,0.01,,2013-02-09 06:01:00,
2013-02-09 01:11:00,23.0,20.0,30.40,NNW,340,0.0,2.0,87,0.00,,,0.01,,2013-02-09 06:11:00,
2013-02-09 01:21:00,23.0,20.0,30.40,NNW,340,0.0,2.0,88,0.00,,,0.01,,2013-02-09 06:21:00,
2013-02-09 01:32:00,25.0,21.0,30.39,NNW,340,0.0,2.0,86,0.00,,,0.01,,2013-02-09 06:32:00,
2013-02-09 01:42:00,25.0,21.0,30.39,NNW,340,0.0,2.0,86,0.00,,,0.01,,2013-02-09 06:42:00,
2013-02-09 01:51:00,26.0,22.0,30.40,NE,49,0.0,2.0,85,0.00,,,0.01,,2013-02-09 06:51:00,
2013-02-09 02:01:00,25.0,21.0,30.41,NE,49,0.0,0.0,84,0.00,,,0.01,,2013-02-09 07:01:00,
2013-02-09 02:11:00,25.0,21.0,30.41,NE,49,0.0,0.0,84,0.00,,,0.01,,2013-02-09 07:11:00,
2013-02-09 02:21:00,25.0,21.0,30.41,NE,49,0.0,0.0,86,0.00,,,0.01,,2013-02-09 07:21:00,
2013-02-09 02:31:00,24.0,20.0,30.41,NNW,339,0.0,1.0,86,0.00,,,0.01,,2013-02-09 07:31:00,
2013-02-09 02:42:00,24.0,20.0,30.41,NNW,339,0.0,1.0,86,0.00,,,0.01,,2013-02-09 07:42:00,
2013-02-09 02:51:00,24.0,20.0,30.41,NNW,339,0.0,1.0,86,0.00,,,0.01,,2013-02-09 07:51:00,
2013-02-09 03:01:00,23.0,20.0,30.42,NNW,339,0.0,0.0,87,0.00,,,0.01,,2013-02-09 08:01:00,
2013-02-09 03:11:00,23.0,20.0,30.42,NNW,339,0.0,0.0,87,0.00,,,0.01,,2013-02-09 08:11:00,
2013-02-09 03:21:00,22.0,19.0,30.41,NNW,339,0.0,0.0,88,0.00,,,0.01,,2013-02-09 08:21:00,
2013-02-09 03:31:00,22.0,20.0,30.41,NNW,339,0.0,0.0,90,0.00,,,0.01,,2013-02-09 08:31:00,
2013-02-09 03:42:00,22.0,20.0,30.41,NNW,339,0.0,0.0,90,0.00,,,0.01,,2013-02-09 08:42:00,
2013-02-09 03:52:00,21.0,18.0,30.41,NNW,339,0.0,0.0,89,0.00,,,0.01,,2013-02-09 08:52:00,
2013-02-09 04:03:00,20.0,18.0,30.41,NNW,339,0.0,0.0,90,0.00,,,0.01,,2013-02-09 09:03:00,
2013-02-09 04:11:00,20.0,18.0,30.41,NNW,339,0.0,0.0,90,0.00,,,0.01,,2013-02-09 09:11:00,
2013-02-09 04:21:00,20.0,17.0,30.41,NNW,339,0.0,0.0,89,0.00,,,0.01,,2013-02-09 09:21:00,
2013-02-09 04:31:00,19.0,17.0,30.42,NNW,339,0.0,0.0,90,0.00,,,0.01,,2013-02-09 09:31:00,
2013-02-09 04:41:00,19.0,17.0,30.42,NNW,339,0.0,0.0,90,0.00,,,0.01,,2013-02-09 09:41:00,
2013-02-09 04:51:00,19.0,17.0,30.42,NNW,339,0.0,0.0,90,0.00,,,0.01,,2013-02-09 09:51:00,
2013-02-09 05:01:00,18.0,15.0,30.43,NNW,339,0.0,0.0,89,0.00,,,0.01,,2013-02-09 10:01:00,
2013-02-09 05:11:00,18.0,15.0,30.43,NNW,339,0.0,0.0,89,0.00,,,0.01,,2013-02-09 10:11:00,
2013-02-09 05:21:00,18.0,16.0,30.43,NNW,339,0.0,0.0,90,0.00,,,0.01,,2013-02-09 10:21:00,
2013-02-09 05:32:00,18.0,16.0,30.42,NNW,339,0.0,0.0,91,0.00,,,0.01,,2013-02-09 10:32:00,
2013-02-09 05:42:00,18.0,16.0,30.42,NNW,339,0.0,0.0,91,0.00,,,0.01,,2013-02-09 10:42:00,
2013-02-09 05:51:00,17.0,15.0,30.42,NNW,339,0.0,0.0,91,0.00,,,0.01,,2013-02-09 10:51:00,
2013-02-09 06:01:00,18.0,16.0,30.41,NNW,339,0.0,0.0,93,0.00,,,0.01,,2013-02-09 11:01:00,
2013-02-09 06:11:00,18.0,16.0,30.41,NNW,339,0.0,0.0,93,0.00,,,0.01,,2013-02-09 11:11:00,
2013-02-09 06:22:00,19.0,17.0,30.41,NNW,339,0.0,0.0,93,0.00,,,0.01,,2013-02-09 11:22:00,
2013-02-09 06:32:00,19.0,17.0,30.42,NNW,339,0.0,0.0,92,0.00,,,0.01,,2013-02-09 11:32:00,
2013-02-09 06:41:00,19.0,17.0,30.42,NNW,339,0.0,0.0,92,0.00,,,0.01,,2013-02-09 11:41:00,
2013-02-09 06:52:00,19.0,17.0,30.42,NNW,339,0.0,0.0,92,0.00,,,0.01,,2013-02-09 11:52:00,
2013-02-09 07:02:00,19.0,17.0,30.42,NNW,339,0.0,0.0,92,0.00,,,0.01,,2013-02-09 12:02:00,
2013-02-09 07:11:00,19.0,17.0,30.42,NNW,339,0.0,0.0,92,0.00,,,0.01,,2013-02-09 12:11:00,
2013-02-09 07:21:00,19.0,17.0,30.43,NNW,339,0.0,0.0,91,0.00,,,0.01,,2013-02-09 12:21:00,
2013-02-09 07:32:00,18.0,15.0,30.44,NNW,339,0.0,0.0,89,0.00,,,0.01,,2013-02-09 12:32:00,
2013-02-09 07:42:00,18.0,15.0,30.44,NNW,339,0.0,0.0,89,0.00,,,0.01,,2013-02-09 12:42:00,
2013-02-09 07:52:00,16.0,13.0,30.44,NNW,339,0.0,0.0,89,0.00,,,0.01,,2013-02-09 12:52:00,
2013-02-09 08:02:00,16.0,14.0,30.45,NNW,339,0.0,0.0,91,0.00,,,0.01,,2013-02-09 13:02:00,
2013-02-09 08:11:00,16.0,14.0,30.45,NNW,339,0.0,0.0,91,0.00,,,0.01,,2013-02-09 13:11:00,
2013-02-09 08:22:00,18.0,17.0,30.44,ENE,78,0.0,2.0,94,0.00,,,0.01,,2013-02-09 13:22:00,
2013-02-09 08:32:00,19.0,18.0,30.44,ESE,118,1.0,3.0,94,0.00,,,0.01,,2013-02-09 13:32:00,
2013-02-09 08:42:00,19.0,18.0,30.44,ESE,118,1.0,3.0,94,0.00,,,0.01,,2013-02-09 13:42:00,
2013-02-09 08:52:00,20.0,18.0,30.45,ESE,109,0.0,2.0,93,0.00,,,0.01,,2013-02-09 13:52:00,
2013-02-09 09:01:00,21.0,19.0,30.45,SE,130,0.0,2.0,91,0.00,,,0.01,,2013-02-09 14:01:00,
2013-02-09 09:11:00,21.0,19.0,30.45,SE,130,0.0,2.0,91,0.00,,,0.01,,2013-02-09 14:11:00,
2013-02-09 09:21:00,21.0,19.0,30.45,SE,136,1.0,3.0,92,0.00,,,0.01,,2013-02-09 14:21:00,
2013-02-09 09:32:00,23.0,21.0,30.44,SE,138,1.0,5.0,90,0.00,,,0.01,,2013-02-09 14:32:00,
2013-02-09 09:42:00,23.0,21.0,30.44,SE,138,1.0,5.0,90,0.00,,,0.01,,2013-02-09 14:42:00,
2013-02-09 09:52:00,23.0,21.0,30.44,SE,138,1.0,5.0,90,0.00,,,0.01,,2013-02-09 14:52:00,
2013-02-09 10:02:00,25.0,22.0,30.44,ESE,113,3.0,6.0,87,0.00,,,0.01,,2013-02-09 15:02:00,
2013-02-09 10:11:00,25.0,22.0,30.44,ESE,113,3.0,6.0,87,0.00,,,0.01,,2013-02-09 15:11:00,
2013-02-09 10:21:00,26.0,22.0,30.43,SE,146,2.0,5.0,86,0.00,,,0.01,,2013-02-09 15:21:00,
2013-02-09 10:32:00,27.0,23.0,30.43,SSE,152,2.0,5.0,83,0.00,,,0.01,,2013-02-09 15:32:00,
2013-02-09 10:42:00,27.0,23.0,30.43,SSE,152,2.0,5.0,83,0.00,,,0.01,,2013-02-09 15:42:00,
2013-02-09 10:51:00,28.0,24.0,30.43,ESE,121,2.0,6.0,83,0.00,,,0.01,,2013-02-09 15:51:00,
2013-02-09 11:01:00,29.0,24.0,30.42,SSE,151,2.0,6.0,81,0.00,,,0.01,,2013-02-09 16:01:00,
2013-02-09 11:11:00,29.0,24.0,30.42,SSE,151,2.0,6.0,81,0.00,,,0.01,,2013-02-09 16:11:00,
2013-02-09 11:22:00,29.0,24.0,30.42,SE,128,1.0,6.0,80,0.00,,,0.01,,2013-02-09 16:22:00,
2013-02-09 11:31:00,30.0,25.0,30.42,SSE,158,2.0,6.0,80,0.00,,,0.01,,2013-02-09 16:31:00,
2013-02-09 11:41:00,30.0,25.0,30.42,SSE,158,2.0,6.0,80,0.00,,,0.01,,2013-02-09 16:41:00,
2013-02-09 11:51:00,31.0,25.0,30.43,SE,146,2.0,5.0,78,0.00,,,0.01,,2013-02-09 16:51:00,
2013-02-09 12:01:00,31.0,25.0,30.43,SSE,149,1.0,5.0,77,0.00,,,0.01,,2013-02-09 17:01:00,
2013-02-09 12:11:00,31.0,25.0,30.43,SSE,149,1.0,5.0,77,0.00,,,0.01,,2013-02-09 17:11:00,
2013-02-09 12:21:00,32.0,25.0,30.43,South,169,1.0,7.0,76,0.00,,,0.01,,2013-02-09 17:21:00,
2013-02-09 12:32:00,32.0,25.0,30.42,South,176,2.0,5.0,76,0.00,,,0.01,,2013-02-09 17:32:00,
2013-02-09 12:42:00,32.0,25.0,30.42,South,176,2.0,5.0,76,0.00,,,0.01,,2013-02-09 17:42:00,
2013-02-09 12:52:00,32.0,25.0,30.41,SW,219,2.0,7.0,76,0.00,,,0.01,,2013-02-09 17:52:00,
2013-02-09 13:02:00,33.0,26.0,30.40,SW,223,2.0,6.0,76,0.00,,,0.01,,2013-02-09 18:02:00,
2013-02-09 13:12:00,33.0,26.0,30.40,SW,223,2.0,6.0,76,0.00,,,0.01,,2013-02-09 18:12:00,
2013-02-09 13:23:00,33.0,26.0,30.39,SSW,198,2.0,6.0,75,0.00,,,0.01,,2013-02-09 18:23:00,
2013-02-09 13:32:00,33.0,26.0,30.39,SE,145,2.0,6.0,76,0.00,,,0.01,,2013-02-09 18:32:00,
2013-02-09 13:42:00,33.0,26.0,30.39,SE,145,2.0,6.0,76,0.00,,,0.01,,2013-02-09 18:42:00,
2013-02-09 13:51:00,33.0,26.0,30.38,SE,136,3.0,7.0,75,0.00,,,0.01,,2013-02-09 18:51:00,
2013-02-09 14:01:00,34.0,27.0,30.37,SSE,166,2.0,5.0,75,0.00,,,0.01,,2013-02-09 19:01:00,
2013-02-09 14:11:00,34.0,27.0,30.37,SSE,166,2.0,5.0,75,0.00,,,0.01,,2013-02-09 19:11:00,
2013-02-09 14:22:00,34.0,26.0,30.36,SSW,213,3.0,9.0,73,0.00,,,0.01,,2013-02-09 19:22:00,
2013-02-09 14:32:00,35.0,28.0,30.35,South,184,3.0,6.0,74,0.00,,,0.01,,2013-02-09 19:32:00,
2013-02-09 14:42:00,35.0,28.0,30.35,South,184,3.0,6.0,74,0.00,,,0.01,,2013-02-09 19:42:00,
2013-02-09 14:52:00,35.0,28.0,30.34,SE,144,5.0,11.0,74,0.00,,,0.01,,2013-02-09 19:52:00,
2013-02-09 15:01:00,35.0,27.0,30.33,SE,129,6.0,12.0,73,0.00,,,0.01,,2013-02-09 20:01:00,
2013-02-09 15:11:00,35.0,27.0,30.33,SE,129,6.0,12.0,73,0.00,,,0.01,,2013-02-09 20:11:00,
2013-02-09 15:21:00,34.0,27.0,30.33,SE,144,3.0,11.0,74,0.00,,,0.01,,2013-02-09 20:21:00,
2013-02-09 15:32:00,35.0,28.0,30.32,SE,129,4.0,7.0,75,0.00,,,0.01,,2013-02-09 20:32:00,
2013-02-09 15:42:00,35.0,28.0,30.32,SE,129,4.0,7.0,75,0.00,,,0.01,,2013-02-09 20:42:00,
2013-02-09 15:52:00,35.0,28.0,30.32,SE,136,3.0,8.0,74,0.00,,,0.01,,2013-02-09 20:52:00,
2013-02-09 16:02:00,35.0,28.0,30.32,South,186,4.0,10.0,75,0.00,,,0.01,,2013-02-09 21:02:00,
2013-02-09 16:11:00,35.0,28.0,30.32,South,186,4.0,10.0,75,0.00,,,0.01,,2013-02-09 21:11:00,
2013-02-09 16:21:00,35.0,28.0,30.32,South,191,3.0,8.0,74,0.00,,,0.01,,2013-02-09 21:21:00,
2013-02-09 16:32:00,35.0,28.0,30.32,SSW,199,3.0,8.0,75,0.00,,,0.01,,2013-02-09 21:32:00,
2013-02-09 16:42:00,35.0,28.0,30.32,SSW,199,3.0,8.0,75,0.00,,,0.01,,2013-02-09 21:42:00,
2013-02-09 16:52:00,36.0,29.0,30.32,SSE,151,2.0,6.0,74,0.00,,,0.01,,2013-02-09 21:52:00,
2013-02-09 17:01:00,35.0,28.0,30.32,SE,130,2.0,5.0,74,0.00,,,0.01,,2013-02-09 22:01:00,
2013-02-09 17:11:00,35.0,28.0,30.32,SE,130,2.0,5.0,74,0.00,,,0.01,,2013-02-09 22:11:00,
2013-02-09 17:21:00,35.0,27.0,30.30,ESE,109,3.0,8.0,73,0.00,,,0.00,,2013-02-09 22:21:00,
2013-02-09 17:32:00,34.0,27.0,30.29,SSE,164,3.0,6.0,74,0.00,,,0.00,,2013-02-09 22:32:00,
2013-02-09 17:42:00,34.0,27.0,30.29,SSE,164,3.0,6.0,74,0.00,,,0.00,,2013-02-09 22:42:00,
2013-02-09 17:52:00,34.0,27.0,30.29,SE,136,3.0,8.0,74,0.00,,,0.00,,2013-02-09 22:52:00,
2013-02-09 18:01:00,33.0,26.0,30.28,SE,136,3.0,7.0,75,0.00,,,0.00,,2013-02-09 23:01:00,
2013-02-09 18:11:00,33.0,26.0,30.28,SE,136,3.0,7.0,75,0.00,,,0.00,,2013-02-09 23:11:00,
2013-02-09 18:21:00,33.0,26.0,30.28,South,169,3.0,8.0,76,0.00,,,0.00,,2013-02-09 23:21:00,
2013-02-09 18:32:00,33.0,27.0,30.27,SE,143,4.0,8.0,78,0.00,,,0.00,,2013-02-09 23:32:00,
2013-02-09 18:42:00,33.0,27.0,30.27,SE,143,4.0,8.0,78,0.00,,,0.00,,2013-02-09 23:42:00,
2013-02-09 18:52:00,32.0,27.0,30.27,SE,136,3.0,8.0,80,0.00,,,0.00,,2013-02-09 23:52:00,
2013-02-09 19:02:00,32.0,27.0,30.27,SE,127,3.0,7.0,81,0.00,,,0.00,,2013-02-10 00:02:00,
2013-02-09 19:12:00,32.0,27.0,30.27,SE,127,3.0,7.0,81,0.00,,,0.00,,2013-02-10 00:12:00,
2013-02-09 19:22:00,31.0,26.0,30.27,SE,132,4.0,7.0,81,0.00,,,0.00,,2013-02-10 00:22:00,
2013-02-09 19:32:00,31.0,26.0,30.27,SE,143,3.0,6.0,82,0.00,,,0.00,,2013-02-10 00:32:00,
2013-02-09 19:42:00,31.0,26.0,30.27,SE,143,3.0,6.0,82,0.00,,,0.00,,2013-02-10 00:42:00,
2013-02-09 19:51:00,31.0,26.0,30.27,SE,136,3.0,7.0,81,0.00,,,0.00,,2013-02-10 00:51:00,
2013-02-09 20:01:00,31.0,26.0,30.27,SSW,207,3.0,9.0,82,0.00,,,0.00,,2013-02-10 01:01:00,
2013-02-09 20:12:00,31.0,26.0,30.27,SSW,207,3.0,9.0,82,0.00,,,0.00,,2013-02-10 01:12:00,
2013-02-09 20:21:00,30.0,25.0,30.27,ESE,118,3.0,8.0,82,0.00,,,0.00,,2013-02-10 01:21:00,
2013-02-09 20:32:00,30.0,25.0,30.26,SSE,148,4.0,9.0,83,0.00,,,0.00,,2013-02-10 01:32:00,
2013-02-09 20:42:00,30.0,25.0,30.26,SSE,148,4.0,9.0,83,0.00,,,0.00,,2013-02-10 01:42:00,
2013-02-09 20:51:00,30.0,25.0,30.26,ESE,123,4.0,7.0,82,0.00,,,0.00,,2013-02-10 01:51:00,
2013-02-09 21:01:00,30.0,25.0,30.25,SE,129,5.0,9.0,82,0.00,,,0.00,,2013-02-10 02:01:00,
2013-02-09 21:11:00,30.0,25.0,30.25,SE,129,5.0,9.0,82,0.00,,,0.00,,2013-02-10 02:11:00,
2013-02-09 21:22:00,30.0,25.0,30.24,SE,124,6.0,9.0,82,0.00,,,0.00,,2013-02-10 02:22:00,
2013-02-09 21:32:00,30.0,25.0,30.24,South,172,4.0,9.0,82,0.00,,,0.00,,2013-02-10 02:32:00,
2013-02-09 21:42:00,30.0,25.0,30.24,South,172,4.0,9.0,82,0.00,,,0.00,,2013-02-10 02:42:00,
2013-02-09 21:52:00,30.0,25.0,30.24,SE,142,3.0,10.0,83,0.00,,,0.00,,2013-02-10 02:52:00,
2013-02-09 22:02:00,30.0,25.0,30.25,South,179,3.0,8.0,82,0.00,,,0.00,,2013-02-10 03:02:00,
2013-02-09 22:11:00,30.0,25.0,30.25,South,179,3.0,8.0,82,0.00,,,0.00,,2013-02-10 03:11:00,
2013-02-09 22:21:00,30.0,25.0,30.24,SE,145,3.0,7.0,82,0.00,,,0.00,,2013-02-10 03:21:00,
2013-02-09 22:32:00,30.0,25.0,30.24,SE,144,4.0,9.0,82,0.00,,,0.00,,2013-02-10 03:32:00,
2013-02-09 22:41:00,30.0,25.0,30.24,SE,144,4.0,9.0,82,0.00,,,0.00,,2013-02-10 03:41:00,
2013-02-09 22:51:00,30.0,25.0,30.24,ESE,117,1.0,7.0,82,0.00,,,0.00,,2013-02-10 03:51:00,
2013-02-09 23:01:00,30.0,25.0,30.24,SE,136,2.0,6.0,82,0.00,,,0.00,,2013-02-10 04:01:00,
2013-02-09 23:11:00,30.0,25.0,30.24,SE,136,2.0,6.0,82,0.00,,,0.00,,2013-02-10 04:11:00,
2013-02-09 23:21:00,30.0,25.0,30.22,SSE,157,4.0,9.0,83,0.00,,,0.00,,2013-02-10 04:21:00,
2013-02-09 23:32:00,31.0,26.0,30.22,East,89,4.0,14.0,80,0.00,,,0.00,,2013-02-10 04:32:00,
2013-02-09 23:42:00,31.0,26.0,30.22,East,89,4.0,14.0,80,0.00,,,0.00,,2013-02-10 04:42:00,
2013-02-09 23:52:00,31.0,26.0,30.21,SE,136,3.0,8.0,80,0.00,,,0.00,,2013-02-10 04:52:00,